�N����,����,�~����,�C��,���x,�C��,����,���ϕ���,�ő�u�ԕ���,�ő厞����,���˗�,�I�_���x,�n�����x,�ő啗���N��,DTYPE
"16/06/17","00:10",0.0,20.2,96.1,996.5,269.9,0.0,0.3,225.0,0.00,19.6,21.8,"00:03:12",1
"16/06/17","00:20",0.0,20.2,96.1,996.5,6.8,0.2,1.0,347.8,0.00,19.6,21.6,"00:13:44",1
"16/06/17","00:30",0.0,20.2,96.2,997.0,243.5,0.0,0.4,227.7,0.00,19.6,21.7,"00:21:12",1
"16/06/17","00:40",0.2,20.2,96.2,997.0,311.8,0.1,0.4,337.7,0.00,19.6,21.7,"00:33:52",1
"16/06/17","00:50",0.0,20.2,96.2,996.7,271.1,0.0,0.3,282.5,0.00,19.6,21.7,"00:40:08",1
"16/06/17","01:00",0.2,20.2,96.2,997.2,312.3,0.0,0.3,280.4,0.00,19.6,21.7,"00:56:24",1
"16/06/17","01:10",0.0,20.2,96.2,997.0,323.8,0.1,0.9,322.4,0.00,19.6,21.7,"01:05:52",1
"16/06/17","01:20",0.0,20.2,96.2,997.2,278.4,0.0,0.3,259.3,0.00,19.6,21.7,"01:12:40",1
"16/06/17","01:30",0.8,20.2,96.3,997.2,305.7,0.1,0.4,354.2,0.00,19.6,21.6,"01:20:40",1
"16/06/17","01:40",0.4,20.3,96.3,997.0,319.9,0.0,0.5,104.3,0.00,19.7,21.6,"01:38:40",1
"16/06/17","01:50",0.0,20.3,96.3,997.4,259.6,0.1,0.5,261.5,0.00,19.7,21.8,"01:48:24",1
"16/06/17","02:00",0.0,20.2,96.3,997.4,276.5,0.3,0.4,264.6,0.00,19.6,21.6,"01:51:04",1
"16/06/17","02:10",0.0,20.2,96.4,997.2,290.3,0.1,0.4,87.6,0.00,19.6,21.5,"02:08:16",1
"16/06/17","02:20",0.0,20.2,96.4,997.2,232.8,0.3,0.5,243.6,0.00,19.6,21.7,"02:15:36",1
"16/06/17","02:30",0.0,20.2,96.3,997.2,222.5,0.6,1.1,222.6,0.00,19.6,21.6,"02:27:44",1
"16/06/17","02:40",0.0,20.3,96.5,997.7,298.3,0.5,1.0,237.0,0.00,19.8,21.7,"02:31:52",1
"16/06/17","02:50",0.0,20.3,96.4,997.9,297.0,0.2,0.5,317.8,0.00,19.7,21.6,"02:46:16",1
"16/06/17","03:00",0.0,20.3,96.5,997.7,317.5,0.3,0.8,327.7,0.00,19.8,21.5,"02:51:36",1
"16/06/17","03:10",0.0,20.3,96.4,997.9,340.4,0.5,1.1,340.5,0.00,19.7,21.6,"03:06:16",1
"16/06/17","03:20",0.0,20.2,96.5,997.9,335.0,0.6,1.3,339.5,0.00,19.7,21.5,"03:14:24",1
"16/06/17","03:30",0.0,20.3,96.5,997.9,330.9,0.2,0.6,334.8,0.00,19.8,21.7,"03:20:08",1
"16/06/17","03:40",0.0,20.3,96.5,997.9,237.4,0.1,0.5,175.6,0.00,19.8,21.5,"03:33:20",1
"16/06/17","03:50",0.0,20.4,96.5,997.9,264.9,0.1,0.5,264.3,0.00,19.9,21.6,"03:44:40",1
"16/06/17","04:00",0.0,20.4,96.5,998.4,294.8,0.2,0.6,336.0,0.00,19.9,21.5,"03:56:00",1
"16/06/17","04:10",0.0,20.4,96.5,998.2,232.1,0.1,0.4,182.5,0.00,19.9,21.4,"04:06:36",1
"16/06/17","04:20",0.0,20.4,96.5,998.6,292.8,0.2,0.8,350.3,0.00,19.9,21.5,"04:18:48",1
"16/06/17","04:30",0.2,20.4,96.6,998.6,332.8,0.5,1.0,339.6,0.00,19.9,21.5,"04:22:00",1
"16/06/17","04:40",0.0,20.4,96.5,998.9,311.1,0.2,0.8,341.5,0.00,19.9,21.5,"04:32:56",1
"16/06/17","04:50",0.0,20.4,96.6,999.1,258.8,0.1,0.3,251.9,0.00,19.9,21.5,"04:41:12",1
"16/06/17","05:00",0.0,20.4,96.6,999.1,316.8,0.1,0.6,352.5,0.00,19.9,21.5,"04:51:36",1
"16/06/17","05:10",0.0,20.4,96.6,998.9,300.2,0.1,0.6,327.1,0.00,19.9,21.6,"05:08:08",1
"16/06/17","05:20",0.2,20.5,96.6,999.1,320.8,0.2,0.8,343.8,0.00,20.0,21.6,"05:13:28",1
"16/06/17","05:30",0.0,20.5,96.6,999.1,289.2,0.0,0.4,212.9,0.00,20.0,21.5,"05:27:28",1
"16/06/17","05:40",0.0,20.5,96.6,999.3,251.6,0.0,0.3,247.9,0.00,20.0,21.4,"05:30:56",1
"16/06/17","05:50",0.0,20.5,96.7,999.8,335.2,0.0,0.4,0.3,0.00,20.0,21.4,"05:42:16",1
"16/06/17","06:00",0.0,20.6,96.7,1000.3,302.5,0.1,0.6,223.5,0.00,20.1,21.7,"05:59:52",1
"16/06/17","06:10",0.0,20.6,96.7,1000.5,283.7,0.1,0.5,345.7,0.00,20.1,21.6,"06:08:00",1
"16/06/17","06:20",0.0,20.7,96.7,1000.0,339.9,0.6,1.6,353.4,0.01,20.2,21.6,"06:16:56",1
"16/06/17","06:30",0.0,20.9,96.7,1000.0,324.9,0.7,2.0,201.7,0.03,20.4,21.5,"06:29:52",1
"16/06/17","06:40",0.0,21.0,96.5,1000.5,188.9,1.3,2.9,193.5,0.02,20.5,21.6,"06:32:00",1
"16/06/17","06:50",0.0,21.3,96.5,1000.5,264.5,0.7,1.3,216.8,0.05,20.8,21.6,"06:40:08",1
"16/06/17","07:00",0.0,21.4,96.1,1000.5,345.2,0.1,0.5,334.2,0.02,20.8,21.6,"06:50:32",1
"16/06/17","07:10",0.0,21.5,95.9,1000.3,26.5,0.3,1.0,343.2,0.05,20.9,21.7,"07:08:40",1
"16/06/17","07:20",0.0,21.7,95.7,1001.2,290.2,0.1,0.5,352.9,0.04,21.0,21.8,"07:10:16",1
"16/06/17","07:30",0.0,21.6,95.4,1001.0,303.5,0.1,0.4,335.7,0.02,20.9,21.7,"07:21:12",1
"16/06/17","07:40",0.0,21.7,94.9,1000.5,317.4,0.1,0.5,333.4,0.03,20.9,21.8,"07:30:16",1
"16/06/17","07:50",0.0,21.9,94.8,1000.8,21.6,0.1,0.5,317.7,0.04,21.1,21.7,"07:47:44",1
"16/06/17","08:00",0.0,21.9,94.2,1001.0,339.0,0.6,1.3,341.9,0.03,21.0,21.8,"07:53:04",1
"16/06/17","08:10",0.0,22.0,93.8,1001.2,355.1,0.3,1.2,315.2,0.04,21.0,22.2,"08:08:08",1
"16/06/17","08:20",0.0,22.3,93.9,1001.2,335.6,0.5,1.2,346.7,0.06,21.3,22.1,"08:12:16",1
"16/06/17","08:30",0.0,22.6,89.4,1001.2,253.2,0.7,2.1,234.5,0.10,20.8,22.0,"08:26:16",1
"16/06/17","08:40",0.0,23.3,88.7,1001.2,275.6,0.6,1.9,246.5,0.16,21.4,22.0,"08:38:56",1
"16/06/17","08:50",0.0,24.8,85.3,1001.0,286.0,0.6,1.8,229.9,0.38,22.2,22.4,"08:49:12",1
"16/06/17","09:00",0.0,25.1,83.9,1001.0,279.4,0.3,1.3,228.7,0.35,22.2,22.5,"08:54:32",1
"16/06/17","09:10",0.0,24.1,82.0,1001.2,237.3,1.2,3.5,230.7,0.22,20.9,22.6,"09:05:52",1
"16/06/17","09:20",0.0,24.1,86.1,1001.2,249.1,1.1,3.4,236.4,0.18,21.7,22.7,"09:17:04",1
"16/06/17","09:30",0.0,25.7,79.8,1001.2,217.9,0.6,2.6,230.9,0.46,22.0,23.3,"09:26:16",1
"16/06/17","09:40",0.0,25.5,79.5,1001.2,226.7,1.2,3.4,201.7,0.44,21.7,23.2,"09:39:36",1
"16/06/17","09:50",0.0,25.5,78.8,1001.2,247.8,1.0,3.5,245.6,0.28,21.6,23.3,"09:40:48",1
"16/06/17","10:00",0.0,25.9,78.6,1001.0,279.7,0.8,2.4,217.3,0.32,21.9,23.7,"09:50:24",1
"16/06/17","10:10",0.0,25.4,79.0,1001.0,257.7,0.8,3.1,193.6,0.18,21.5,23.8,"10:05:04",1
"16/06/17","10:20",0.0,26.9,75.7,1000.8,288.8,0.5,1.4,217.3,0.44,22.3,24.0,"10:11:20",1
"16/06/17","10:30",0.0,27.5,68.8,1000.8,219.5,0.8,2.7,355.2,0.61,21.3,24.2,"10:24:40",1
"16/06/17","10:40",0.0,28.0,68.3,1001.0,203.9,1.1,2.8,216.5,0.63,21.7,24.2,"10:39:04",1
"16/06/17","10:50",0.0,27.7,68.1,1001.2,236.4,0.7,3.6,191.3,0.43,21.3,24.7,"10:43:44",1
"16/06/17","11:00",0.0,26.3,70.8,1001.2,239.1,0.7,2.7,213.9,0.17,20.6,24.9,"10:50:40",1
"16/06/17","11:10",0.0,28.2,70.3,1000.5,307.2,0.7,2.4,352.9,0.49,22.3,25.0,"11:07:20",1
"16/06/17","11:20",0.0,27.9,67.7,1001.0,270.2,0.6,2.0,223.4,0.36,21.4,25.0,"11:12:16",1
"16/06/17","11:30",0.0,28.3,67.4,1001.0,276.1,0.5,1.1,189.9,0.36,21.7,25.2,"11:23:28",1
"16/06/17","11:40",0.0,28.2,65.8,1001.2,275.0,0.3,1.3,165.6,0.28,21.2,25.5,"11:30:16",1
"16/06/17","11:50",0.0,28.0,65.9,1001.5,244.9,0.7,3.1,223.4,0.30,21.1,25.5,"11:46:24",1
"16/06/17","12:00",0.0,28.1,64.7,1001.0,260.7,0.5,1.7,225.8,0.32,20.9,25.6,"11:51:12",1
"16/06/17","12:10",0.0,28.1,64.7,1000.8,180.0,0.3,1.3,356.7,0.25,20.9,25.5,"12:00:16",1
"16/06/17","12:20",0.0,27.8,63.1,1000.8,289.2,0.7,3.6,226.1,0.24,20.2,25.6,"12:19:12",1
"16/06/17","12:30",0.0,27.6,62.3,1001.0,243.8,1.0,4.4,226.1,0.25,19.8,25.7,"12:29:44",1
"16/06/17","12:40",0.0,27.5,69.7,1001.0,226.0,1.1,2.8,225.6,0.23,21.5,25.7,"12:30:24",1
"16/06/17","12:50",0.0,27.1,67.6,1000.5,233.3,1.5,3.7,220.8,0.21,20.6,25.8,"12:42:16",1
"16/06/17","13:00",0.0,26.7,69.1,1000.3,223.6,1.8,4.4,221.5,0.07,20.6,25.5,"12:54:40",1
"16/06/17","13:10",0.0,26.7,70.4,999.8,233.9,1.3,3.3,222.6,0.11,20.9,25.8,"13:08:32",1
"16/06/17","13:20",0.0,26.5,69.6,1000.3,227.8,2.2,4.8,231.8,0.08,20.5,25.7,"13:13:36",1
"16/06/17","13:30",0.0,26.9,71.3,1000.0,235.1,1.3,3.5,221.1,0.17,21.3,25.5,"13:20:08",1
"16/06/17","13:40",0.0,26.6,69.8,1000.3,235.0,1.5,3.9,231.3,0.16,20.7,25.3,"13:31:44",1
"16/06/17","13:50",0.0,27.3,67.9,999.8,230.7,1.2,2.9,219.5,0.26,20.9,25.6,"13:40:32",1
"16/06/17","14:00",0.0,27.7,69.4,1000.0,218.3,1.6,3.6,210.8,0.28,21.6,25.4,"13:57:12",1
"16/06/17","14:10",0.0,28.0,65.2,1000.0,208.4,1.1,3.1,231.2,0.28,20.9,25.5,"14:09:52",1
"16/06/17","14:20",0.0,27.9,63.7,1000.5,217.1,1.7,3.3,217.3,0.28,20.4,25.7,"14:14:48",1
"16/06/17","14:30",0.0,27.3,66.9,1000.5,200.1,1.0,2.2,225.2,0.11,20.7,25.5,"14:29:20",1
"16/06/17","14:40",0.0,27.1,68.5,1000.0,201.3,1.7,3.2,225.6,0.07,20.8,25.5,"14:34:40",1
"16/06/17","14:50",0.0,26.9,69.0,1000.3,198.9,1.3,3.2,216.1,0.06,20.8,25.5,"14:49:36",1
"16/06/17","15:00",0.0,26.9,68.2,1000.3,210.7,1.5,2.7,199.2,0.08,20.6,25.5,"14:52:08",1
"16/06/17","15:10",0.0,27.0,70.4,1000.3,213.6,1.1,3.4,225.0,0.08,21.2,25.4,"15:01:52",1
"16/06/17","15:20",0.0,27.2,70.9,1000.5,251.9,0.7,2.0,225.1,0.13,21.5,25.5,"15:12:56",1
"16/06/17","15:30",0.0,28.0,66.7,1000.0,353.3,0.3,1.4,232.1,0.19,21.3,25.5,"15:20:56",1
"16/06/17","15:40",0.0,27.5,68.4,1000.3,214.4,1.2,3.3,219.3,0.16,21.2,25.5,"15:38:48",1
"16/06/17","15:50",0.0,27.6,66.2,1000.5,212.9,1.2,2.6,228.5,0.20,20.8,25.6,"15:43:04",1
"16/06/17","16:00",0.0,27.7,65.6,999.8,263.6,0.6,2.0,224.2,0.13,20.7,25.6,"15:53:12",1
"16/06/17","16:10",0.0,27.5,66.4,1000.5,277.2,0.7,1.9,193.1,0.06,20.7,25.5,"16:02:32",1
"16/06/17","16:20",0.0,26.9,68.5,1000.5,295.1,0.5,1.7,341.8,0.01,20.7,25.4,"16:10:16",1
"16/06/17","16:30",0.0,26.7,74.6,1000.5,334.1,0.6,1.6,317.8,0.01,21.9,25.4,"16:26:24",1
"16/06/17","16:40",0.0,26.0,74.6,1000.8,332.6,0.7,1.6,354.1,0.00,21.2,25.4,"16:33:52",1
"16/06/17","16:50",0.2,25.7,74.1,1001.2,356.3,1.2,2.8,340.1,0.01,20.8,25.3,"16:44:56",1
"16/06/17","17:00",0.0,25.8,74.5,1001.2,358.7,1.1,2.5,318.0,0.03,21.0,25.1,"16:51:20",1
"16/06/17","17:10",0.0,25.7,75.3,1001.5,344.8,0.8,2.1,13.1,0.02,21.0,25.2,"17:01:36",1
"16/06/17","17:20",0.0,25.8,73.1,1001.9,350.9,0.6,1.2,351.9,0.04,20.7,25.2,"17:11:36",1
"16/06/17","17:30",0.0,25.8,73.9,1001.9,339.1,0.8,1.6,339.8,0.02,20.8,25.1,"17:21:28",1
"16/06/17","17:40",0.0,25.7,74.6,1002.4,335.0,0.3,1.0,326.9,0.00,20.9,25.0,"17:31:04",1
"16/06/17","17:50",0.0,25.4,76.4,1002.4,296.4,0.5,0.8,295.7,0.00,21.0,24.9,"17:42:24",1
"16/06/17","18:00",0.0,25.3,76.9,1001.9,325.5,0.3,0.9,14.5,0.00,21.0,24.9,"17:59:36",1
"16/06/17","18:10",0.0,25.3,78.4,1002.9,317.8,0.3,0.8,6.3,0.01,21.3,24.8,"18:00:08",1
"16/06/17","18:20",0.0,25.1,78.7,1002.6,248.0,0.7,2.1,232.7,0.02,21.2,24.8,"18:14:48",1
"16/06/17","18:30",0.0,24.9,78.4,1002.9,298.8,0.6,1.1,332.6,0.01,20.9,24.6,"18:24:00",1
"16/06/17","18:40",0.0,24.6,79.2,1003.1,281.3,0.6,1.1,325.3,0.00,20.8,24.7,"18:30:40",1
"16/06/17","18:50",0.0,24.4,80.1,1003.4,293.1,0.5,1.0,305.9,0.00,20.8,24.7,"18:46:56",1
"16/06/17","19:00",0.0,24.1,81.0,1003.6,279.7,0.5,0.8,246.9,0.00,20.7,24.5,"18:58:08",1
"16/06/17","19:10",0.0,23.8,81.5,1003.6,317.4,0.8,1.7,329.4,0.00,20.5,24.5,"19:06:00",1
"16/06/17","19:20",0.0,23.4,81.0,1003.6,334.7,1.2,2.1,356.6,0.00,20.0,24.3,"19:10:08",1
"16/06/17","19:30",0.0,23.0,82.0,1003.8,329.1,1.2,2.2,333.5,0.00,19.8,24.2,"19:28:56",1
"16/06/17","19:40",0.0,22.7,83.3,1004.1,306.7,1.1,1.7,333.2,0.00,19.8,24.2,"19:31:52",1
"16/06/17","19:50",0.0,22.3,84.1,1004.5,299.7,0.8,2.1,341.8,0.00,19.5,24.1,"19:49:04",1
"16/06/17","20:00",0.0,22.1,83.8,1004.5,329.9,1.2,2.0,320.2,0.00,19.3,24.1,"19:51:20",1
"16/06/17","20:10",0.0,22.0,83.0,1005.0,340.9,1.3,2.7,337.0,0.00,19.0,24.0,"20:08:16",1
"16/06/17","20:20",0.0,21.9,82.8,1005.2,343.6,1.3,2.6,338.3,0.00,18.9,23.4,"20:11:44",1
"16/06/17","20:30",0.0,21.9,82.7,1005.2,342.1,1.5,2.6,355.2,0.00,18.9,23.6,"20:21:04",1
"16/06/17","20:40",0.0,21.9,82.3,1005.2,332.0,1.2,2.5,332.7,0.00,18.8,23.8,"20:34:16",1
"16/06/17","20:50",0.0,21.6,83.2,1005.7,335.9,1.2,2.0,337.1,0.00,18.7,23.6,"20:42:56",1
"16/06/17","21:00",0.0,21.1,85.0,1005.7,323.1,1.1,1.7,341.6,0.00,18.5,23.5,"20:59:36",1
"16/06/17","21:10",0.0,20.8,86.0,1006.2,314.8,1.0,1.7,343.4,0.00,18.4,23.4,"21:00:24",1
"16/06/17","21:20",0.0,20.5,87.1,1006.0,322.9,1.1,2.5,341.7,0.00,18.3,23.2,"21:12:00",1
"16/06/17","21:30",0.0,20.3,88.2,1006.2,328.9,1.1,1.8,339.6,0.00,18.3,23.3,"21:24:00",1
"16/06/17","21:40",0.0,20.1,88.4,1006.2,337.0,1.2,1.9,355.0,0.00,18.2,23.4,"21:35:20",1
"16/06/17","21:50",0.0,20.0,87.7,1006.2,320.9,1.0,1.7,318.9,0.00,17.9,23.0,"21:40:40",1
"16/06/17","22:00",0.0,20.0,87.4,1006.4,298.5,0.7,1.3,328.3,0.00,17.9,23.0,"21:54:08",1
"16/06/17","22:10",0.0,19.7,88.0,1006.7,298.1,0.7,1.0,300.0,0.00,17.7,22.8,"22:00:56",1
"16/06/17","22:20",0.0,19.5,88.7,1006.4,284.2,0.8,1.2,327.7,0.00,17.6,22.8,"22:15:04",1
"16/06/17","22:30",0.0,19.3,89.1,1006.7,283.2,0.5,1.0,274.8,0.00,17.5,22.7,"22:20:24",1
"16/06/17","22:40",0.0,19.0,90.1,1006.9,311.4,1.2,1.7,318.7,0.00,17.4,22.7,"22:32:08",1
"16/06/17","22:50",0.0,18.9,90.9,1006.7,317.3,1.2,2.0,329.3,0.00,17.4,22.6,"22:48:16",1
"16/06/17","23:00",0.0,18.7,91.4,1006.9,301.4,1.2,1.7,317.3,0.00,17.3,22.4,"22:55:52",1
"16/06/17","23:10",0.0,18.6,91.7,1006.9,299.7,1.1,1.6,310.2,0.00,17.3,22.4,"23:02:08",1
"16/06/17","23:20",0.0,18.4,92.0,1007.1,298.6,1.1,1.7,317.3,0.00,17.1,22.3,"23:14:40",1
"16/06/17","23:30",0.0,18.3,92.6,1007.1,300.2,1.1,1.7,312.1,0.00,17.1,22.3,"23:29:36",1
"16/06/17","23:40",0.0,18.4,93.2,1007.1,313.7,1.6,1.9,311.4,0.00,17.3,22.0,"23:35:52",1
"16/06/17","23:50",0.0,18.5,92.9,1007.4,314.4,1.6,2.1,331.4,0.00,17.4,22.1,"23:48:24",1
"16/06/17","24:00",0.0,18.5,92.6,1007.1,319.4,1.6,2.5,340.9,0.00,17.3,22.2,"23:50:56",1
